FW1212 Weather Reports


time (UTC)temp
F
wind
direction
speed
knots
gust
knots
rain 1hr
in
rain 24hr
in
rain mn
in
humidity
%
barometer
mb
20260508073040 58 96 2.6 8.7 0.00 0.00 0.00 75 1013.2
20260508071540 57 105 1.7 7.8 0.00 0.00 0.00 77 1013.1
20260508070039 56 69 2.6 8.7 0.00 0.00 0.00 77 1013.0
20260508064548 55 51 3.5 8.7 0.00 0.00 0.00 78 1013.0
20260508063036 54 101 2.6 10.4 0.00 0.00 0.00 79 1013.0
20260508061537 54 104 6.1 12.2 0.00 0.00 0.00 79 1012.8
20260508060035 54 72 6.1 13.0 0.00 0.00 0.00 79 1012.9
20260508054535 53 117 3.5 10.4 0.00 0.00 0.00 80 1012.9
20260508053035 52 124 4.3 10.4 0.00 0.00 0.00 81 1012.9
20260508051533 51 98 1.7 8.7 0.00 0.00 0.00 82 1012.9
20260508050032 51 92 3.5 9.6 0.00 0.00 0.00 82 1012.8
20260508044532 51 150 2.6 8.7 0.00 0.00 0.00 82 1012.8
20260508043031 50 33 4.3 7.8 0.00 0.00 0.00 83 1012.7
20260508041530 50 38 6.1 8.7 0.00 0.00 0.00 82 1012.7
20260508040037 50 50 3.5 8.7 0.00 0.00 0.00 82 1012.6
20260508034529 50 110 2.6 7.0 0.00 0.00 0.00 82 1012.4
20260508033027 49 63 0.9 4.3 0.00 0.00 0.00 82 1012.5
20260508031530 49 75 1.7 6.1 0.00 0.00 0.00 82 1012.4
20260508030024 50 120 0.0 2.6 0.00 0.00 0.00 81 1012.4
20260508023027 50 67 3.5 6.1 0.00 0.00 0.00 81 1012.1
20260508021519 50 44 4.3 7.0 0.00 0.00 0.00 81 1012.1
20260508020017 50 68 2.6 5.2 0.00 0.00 0.00 81 1012.1
20260508014532 50 57 3.5 6.1 0.00 0.00 0.00 81 1012.1
20260508013014 51 56 4.3 7.0 0.00 0.00 0.00 80 1012.2
20260508011509 51 19 2.6 7.0 0.00 0.00 0.00 80 1012.4
20260508010009 51 52 4.3 7.8 0.00 0.00 0.00 80 1012.4
20260508004513 51 63 2.6 6.1 0.00 0.00 0.00 80 1012.4
20260508003016 52 114 0.9 5.2 0.00 0.00 0.00 80 1012.5
20260508001502 52 65 2.6 4.3 0.00 0.00 0.00 80 1012.6
20260508000000 53 83 0.9 5.2 0.00 0.00 0.00 79 1012.4
20260507234558 53 153 0.0 5.2 0.00 0.00 0.00 79 1012.5
20260507233055 53 352 0.0 2.6 0.00 0.00 0.00 79 1012.6
20260507231552 54 38 0.0 1.7 0.00 0.00 0.00 78 1012.8
20260507230051 54 121 0.9 4.3 0.00 0.00 0.00 78 1013.0
20260507224602 55 350 0.0 6.1 0.00 0.00 0.00 78 1012.8
20260507223054 55 56 1.7 6.1 0.00 0.00 0.00 77 1012.8
20260507221544 56 60 0.9 4.3 0.00 0.00 0.00 76 1012.9
20260507220042 57 1 2.6 6.1 0.00 0.00 0.00 76 1013.0
20260507214539 57 75 3.5 7.8 0.00 0.00 0.00 75 1012.9
20260507213040 58 84 3.5 7.0 0.00 0.00 0.00 74 1012.9
20260507211546 58 82 2.6 9.6 0.00 0.00 0.00 74 1012.9
20260507210035 59 98 4.3 8.7 0.00 0.00 0.00 73 1012.9
20260507204531 59 55 3.5 8.7 0.00 0.00 0.00 71 1012.8
20260507203030 60 77 3.5 8.7 0.00 0.00 0.00 70 1012.7
20260507201531 60 62 3.5 8.7 0.00 0.00 0.00 68 1012.7
20260507200028 60 79 3.5 7.0 0.00 0.00 0.00 66 1012.6
20260507194530 61 86 2.6 5.2 0.00 0.00 0.00 62 1012.6
20260507193033 62 70 3.5 8.7 0.00 0.00 0.00 59 1012.5
20260507191527 62 62 2.6 7.8 0.00 0.00 0.00 57 1012.5
20260507190031 63 100 3.5 6.1 0.00 0.00 0.00 56 1012.4
20260507184526 64 91 2.6 7.8 0.00 0.00 0.00 55 1012.5
20260507183025 64 60 2.6 7.0 0.00 0.00 0.00 54 1012.4
20260507181524 65 83 2.6 5.2 0.00 0.00 0.00 52 1012.2
20260507180023 66 56 3.5 7.8 0.00 0.00 0.00 50 1012.0
20260507174523 66 97 2.6 7.8 0.00 0.00 0.00 49 1012.0
20260507173024 67 40 2.6 7.8 0.00 0.00 0.00 48 1012.0
20260507171521 68 96 2.6 10.4 0.00 0.00 0.00 47 1011.9
20260507170022 69 71 4.3 9.6 0.00 0.00 0.00 44 1011.8
20260507164521 70 125 3.5 9.6 0.00 0.00 0.00 43 1011.6
20260507163024 70 75 4.3 13.0 0.00 0.00 0.00 41 1011.6
20260507161519 71 88 5.2 9.6 0.00 0.00 0.00 40 1011.5
20260507160019 72 30 6.1 12.2 0.00 0.00 0.00 38 1011.5
20260507154518 73 71 7.8 14.8 0.00 0.00 0.00 35 1011.3
20260507153020 74 82 6.1 16.5 0.00 0.00 0.00 36 1011.3
20260507151519 74 63 6.1 16.5 0.00 0.00 0.00 37 1011.3
20260507150016 74 121 6.1 14.8 0.00 0.00 0.00 37 1011.4
20260507144515 74 69 5.2 12.2 0.00 0.00 0.00 37 1011.4
20260507143015 74 58 7.0 13.0 0.00 0.00 0.00 36 1011.5
20260507141513 75 135 4.3 14.8 0.00 0.00 0.00 35 1011.6
20260507140023 76 56 8.7 14.8 0.00 0.00 0.00 33 1011.7
20260507134512 76 88 5.2 14.8 0.00 0.00 0.00 33 1011.7
20260507133011 76 32 7.8 13.9 0.00 0.00 0.00 33 1011.6
20260507131510 76 65 7.0 13.0 0.00 0.00 0.00 34 1011.8
20260507130008 76 93 6.1 13.9 0.00 0.00 0.00 32 1011.8
20260507124513 76 123 7.0 14.8 0.00 0.00 0.00 32 1011.9
20260507123006 77 94 4.3 14.8 0.00 0.00 0.00 33 1012.0
20260507121508 77 40 6.1 12.2 0.00 0.00 0.00 33 1012.1
20260507120004 76 42 9.6 14.8 0.00 0.00 0.00 31 1012.4
20260507114501 77 100 7.8 16.5 0.00 0.00 0.00 32 1012.4
20260507113103 76 37 6.1 15.6 0.00 0.00 0.00 34 1012.5
20260507111559 76 56 7.8 14.8 0.00 0.00 0.00 33 1012.5
20260507110100 76 137 7.8 14.8 0.00 0.00 0.00 34 1012.6
20260507104557 75 108 7.8 17.4 0.00 0.00 0.00 34 1012.5
20260507103056 76 102 10.4 15.6 0.00 0.00 0.00 33 1012.6
20260507101605 75 63 7.0 14.8 0.00 0.00 0.00 34 1012.7
20260507100055 76 67 7.8 16.5 0.00 0.00 0.00 33 1012.9
20260507094559 75 35 7.0 15.6 0.00 0.00 0.00 35 1012.9
20260507093050 75 54 6.1 12.2 0.00 0.00 0.00 35 1013.0
20260507091559 74 88 7.8 13.9 0.00 0.00 0.00 35 1013.0
20260507090107 73 100 6.1 10.4 0.00 0.00 0.00 38 1013.0
20260507084545 74 80 8.7 13.9 0.00 0.00 0.00 37 1013.0
20260507083045 73 87 5.2 13.0 0.00 0.00 0.00 37 1013.1
20260507081551 73 113 6.1 13.0 0.00 0.00 0.00 38 1013.1
20260507080039 72 58 7.0 13.9 0.00 0.00 0.00 40 1013.1
20260507074540 71 101 5.2 10.4 0.00 0.00 0.00 42 1013.1